Train No Train Name From To Distance Stops avg_speed (km/hr)
12448 U P Sampark Kranti Hazrat Nizamuddin Manikpur Junction 694 10 56
A Train's "Departure" Station, "Arrival" Station and "Distance" may vary. Although we have verified some of this data from enquiry.indianrail.gov.in
Train No Start Date (yyyy-mm-dd) Status Delay Time Source
12448 2017-01-08 Late 77 hours 57 minutes Source
12448 2017-01-10 Late 29 hours 57 minutes Source
12448 2017-01-15 Late 49 hours 58 minutes Source
12448 2017-01-16 Late 25 hours 58 minutes Source
12448 2017-01-17 Late 31 hours 31 minutes Source
12448 2017-01-18 Late 30 hours 10 minutes Source
12448 2017-01-21 Late 22 hours 33 minutes Source
12448 2017-01-22 Late 26 hours 57 minutes Source
12448 2017-01-25 Late 42 hours 29 minutes Source
12448 2017-01-27 Late 51 hours 07 minutes Source
12448 2017-01-28 Late 27 hours 07 minutes Source
12448 2017-01-29 Late 24 hours 00 minutes Source
12448 2017-02-01 Late 49 hours 46 minutes Source
12448 2017-02-02 Late 29 hours 49 minutes Source
12448 2017-02-05 Late 32 hours 10 minutes Source
12448 2017-02-06 Late 25 hours 00 minutes Source
12448 2017-02-11 Late 25 hours 10 minutes Source
12448 2017-02-12 Late 49 hours 13 minutes Source
12448 2017-02-13 Late 25 hours 13 minutes Source
12448 2017-02-14 Late 76 hours 04 minutes Source
12448 2017-02-15 Late 52 hours 10 minutes Source
12448 2017-03-05 Late 24 hours 00 minutes Source
12448 2017-04-15 Late 24 hours 39 minutes Source
12448 2017-04-30 Late 23 hours 38 minutes Source
Page 1 of 1, showing 24 records out of 24 total